owner,sensor,date,latitude,longitude,air_temperature,qcFlag 
COMPS,ioos:station:USF.COMPS:FHP:1,2012-02-02T22:00:00Z,28.1530,-82.8010,20.9,1111122 
COMPS,ioos:station:USF.COMPS:FHP:1,2012-02-02T23:00:00Z,28.1530,-82.8010,20.1,1111122 
COMPS,ioos:station:USF.COMPS:FHP:1,2012-02-03T00:00:00Z,28.1530,-82.8010,20.0,1111122 
COMPS,ioos:station:USF.COMPS:FHP:1,2012-02-03T01:00:00Z,28.1530,-82.8010,19.8,1111122 
COMPS,ioos:station:USF.COMPS:FHP:1,2012-02-03T02:00:00Z,28.1530,-82.8010,19.7,1111122 
COMPS,ioos:station:USF.COMPS:FHP:1,2012-02-03T03:00:00Z,28.1530,-82.8010,19.6,1111122 
COMPS,ioos:station:USF.COMPS:FHP:1,2012-02-03T04:00:00Z,28.1530,-82.8010,19.3,1111122 
COMPS,ioos:station:USF.COMPS:FHP:1,2012-02-03T05:00:00Z,28.1530,-82.8010,19.0,1111122 
COMPS,ioos:station:USF.COMPS:FHP:1,2012-02-03T06:00:00Z,28.1530,-82.8010,19.1,1111122 
COMPS,ioos:station:USF.COMPS:FHP:1,2012-02-03T07:00:00Z,28.1530,-82.8010,19.3,1111122 
COMPS,ioos:station:USF.COMPS:FHP:1,2012-02-03T08:00:00Z,28.1530,-82.8010,18.9,1111122 
COMPS,ioos:station:USF.COMPS:FHP:1,2012-02-03T09:00:00Z,28.1530,-82.8010,18.6,1111122 
COMPS,ioos:station:USF.COMPS:FHP:1,2012-02-03T10:00:00Z,28.1530,-82.8010,18.3,1111122 
COMPS,ioos:station:USF.COMPS:FHP:1,2012-02-03T11:00:00Z,28.1530,-82.8010,18.1,1111122 
COMPS,ioos:station:USF.COMPS:FHP:1,2012-02-03T12:00:00Z,28.1530,-82.8010,18.0,1111122 
COMPS,ioos:station:USF.COMPS:FHP:1,2012-02-03T13:00:00Z,28.1530,-82.8010,18.0,1111122 
COMPS,ioos:station:USF.COMPS:FHP:1,2012-02-03T14:00:00Z,28.1530,-82.8010,18.7,1111122 
COMPS,ioos:station:USF.COMPS:FHP:1,2012-02-03T15:00:00Z,28.1530,-82.8010,19.4,1111122 
COMPS,ioos:station:USF.COMPS:FHP:1,2012-02-03T16:00:00Z,28.1530,-82.8010,20.8,1111122 
COMPS,ioos:station:USF.COMPS:FHP:1,2012-02-03T17:00:00Z,28.1530,-82.8010,22.3,1111122 
COMPS,ioos:station:USF.COMPS:FHP:1,2012-02-03T18:00:00Z,28.1530,-82.8010,23.2,1111122 
COMPS,ioos:station:USF.COMPS:FHP:1,2012-02-03T19:00:00Z,28.1530,-82.8010,24.2,1111122 
COMPS,ioos:station:USF.COMPS:FHP:1,2012-02-03T20:00:00Z,28.1530,-82.8010,24.8,1111122 
COMPS,ioos:station:USF.COMPS:FHP:1,2012-02-03T21:00:00Z,28.1530,-82.8010,24.4,1111122 
COMPS,ioos:station:USF.COMPS:FHP:1,2012-02-03T22:00:00Z,28.1530,-82.8010,24.1,1111122 
COMPS,ioos:station:USF.COMPS:FHP:1,2012-02-03T23:00:00Z,28.1530,-82.8010,23.2,1111122 
COMPS,ioos:station:USF.COMPS:FHP:1,2012-02-04T00:00:00Z,28.1530,-82.8010,22.4,1111122 
COMPS,ioos:station:USF.COMPS:FHP:1,2012-02-04T01:00:00Z,28.1530,-82.8010,21.8,1111122 
COMPS,ioos:station:USF.COMPS:FHP:1,2012-02-04T02:00:00Z,28.1530,-82.8010,21.3,1111122 
COMPS,ioos:station:USF.COMPS:FHP:1,2012-02-04T03:00:00Z,28.1530,-82.8010,20.7,1111122 
COMPS,ioos:station:USF.COMPS:FHP:1,2012-02-04T04:00:00Z,28.1530,-82.8010,20.2,1111122 
COMPS,ioos:station:USF.COMPS:FHP:1,2012-02-04T05:00:00Z,28.1530,-82.8010,20.1,1111122 
COMPS,ioos:station:USF.COMPS:FHP:1,2012-02-04T06:00:00Z,28.1530,-82.8010,19.9,1111122 
COMPS,ioos:station:USF.COMPS:FHP:1,2012-02-04T07:00:00Z,28.1530,-82.8010,19.7,1111122 
COMPS,ioos:station:USF.COMPS:FHP:1,2012-02-04T08:00:00Z,28.1530,-82.8010,19.2,1111122 
COMPS,ioos:station:USF.COMPS:FHP:1,2012-02-04T09:00:00Z,28.1530,-82.8010,18.9,1111122 
COMPS,ioos:station:USF.COMPS:FHP:1,2012-02-04T10:00:00Z,28.1530,-82.8010,18.6,1111122 
COMPS,ioos:station:USF.COMPS:FHP:1,2012-02-04T11:00:00Z,28.1530,-82.8010,18.6,1111122 
COMPS,ioos:station:USF.COMPS:FHP:1,2012-02-04T12:00:00Z,28.1530,-82.8010,18.6,1111122 
COMPS,ioos:station:USF.COMPS:FHP:1,2012-02-04T13:00:00Z,28.1530,-82.8010,18.4,1111122 
COMPS,ioos:station:USF.COMPS:FHP:1,2012-02-04T14:00:00Z,28.1530,-82.8010,20.1,1111122 
COMPS,ioos:station:USF.COMPS:FHP:1,2012-02-04T15:00:00Z,28.1530,-82.8010,21.7,1111122 
COMPS,ioos:station:USF.COMPS:FHP:1,2012-02-04T16:00:00Z,28.1530,-82.8010,22.5,1111122 
COMPS,ioos:station:USF.COMPS:FHP:1,2012-02-04T17:00:00Z,28.1530,-82.8010,24.2,1111122 
COMPS,ioos:station:USF.COMPS:FHP:1,2012-02-04T18:00:00Z,28.1530,-82.8010,25.0,1111122 
COMPS,ioos:station:USF.COMPS:FHP:1,2012-02-04T19:00:00Z,28.1530,-82.8010,25.7,1111122 
COMPS,ioos:station:USF.COMPS:FHP:1,2012-02-04T20:00:00Z,28.1530,-82.8010,23.1,1111122 
COMPS,ioos:station:USF.COMPS:FHP:1,2012-02-04T21:00:00Z,28.1530,-82.8010,21.4,1111122 
COMPS,ioos:station:USF.COMPS:FHP:1,2012-02-04T22:00:00Z,28.1530,-82.8010,21.3,1111122 
COMPS,ioos:station:USF.COMPS:FHP:1,2012-02-04T23:00:00Z,28.1530,-82.8010,21.5,1111122 
COMPS,ioos:station:USF.COMPS:FHP:1,2012-02-05T00:00:00Z,28.1530,-82.8010,21.1,1111122 
COMPS,ioos:station:USF.COMPS:FHP:1,2012-02-05T01:00:00Z,28.1530,-82.8010,21.4,1111122 
COMPS,ioos:station:USF.COMPS:FHP:1,2012-02-05T02:00:00Z,28.1530,-82.8010,21.4,1111122 
COMPS,ioos:station:USF.COMPS:FHP:1,2012-02-05T03:00:00Z,28.1530,-82.8010,21.3,1111122 
COMPS,ioos:station:USF.COMPS:FHP:1,2012-02-05T04:00:00Z,28.1530,-82.8010,20.7,1111122 
COMPS,ioos:station:USF.COMPS:FHP:1,2012-02-05T05:00:00Z,28.1530,-82.8010,20.9,1111122 
COMPS,ioos:station:USF.COMPS:FHP:1,2012-02-05T06:00:00Z,28.1530,-82.8010,20.5,1111122 
COMPS,ioos:station:USF.COMPS:FHP:1,2012-02-05T07:00:00Z,28.1530,-82.8010,20.1,1111122 
COMPS,ioos:station:USF.COMPS:FHP:1,2012-02-05T08:00:00Z,28.1530,-82.8010,20.2,1111122 
COMPS,ioos:station:USF.COMPS:FHP:1,2012-02-05T09:00:00Z,28.1530,-82.8010,19.8,1111122 
COMPS,ioos:station:USF.COMPS:FHP:1,2012-02-05T10:00:00Z,28.1530,-82.8010,19.3,1111122 
COMPS,ioos:station:USF.COMPS:FHP:1,2012-02-05T11:00:00Z,28.1530,-82.8010,19.8,1111122 
COMPS,ioos:station:USF.COMPS:FHP:1,2012-02-05T12:00:00Z,28.1530,-82.8010,19.8,1111122 
COMPS,ioos:station:USF.COMPS:FHP:1,2012-02-05T13:00:00Z,28.1530,-82.8010,19.4,1111122 
COMPS,ioos:station:USF.COMPS:FHP:1,2012-02-05T14:00:00Z,28.1530,-82.8010,19.9,1111122 
COMPS,ioos:station:USF.COMPS:FHP:1,2012-02-05T15:00:00Z,28.1530,-82.8010,20.8,1111122 
COMPS,ioos:station:USF.COMPS:FHP:1,2012-02-05T16:00:00Z,28.1530,-82.8010,21.7,1111122 
COMPS,ioos:station:USF.COMPS:FHP:1,2012-02-05T17:00:00Z,28.1530,-82.8010,22.8,1111122 
COMPS,ioos:station:USF.COMPS:FHP:1,2012-02-05T18:00:00Z,28.1530,-82.8010,22.7,1111122 
COMPS,ioos:station:USF.COMPS:FHP:1,2012-02-05T19:00:00Z,28.1530,-82.8010,22.4,1111122 
COMPS,ioos:station:USF.COMPS:FHP:1,2012-02-05T20:00:00Z,28.1530,-82.8010,22.1,1111122 
COMPS,ioos:station:USF.COMPS:FHP:1,2012-02-05T22:00:00Z,28.1530,-82.8010,22.5,1111122 
COMPS,ioos:station:USF.COMPS:FHP:1,2012-02-05T23:00:00Z,28.1530,-82.8010,21.6,1111122 
COMPS,ioos:station:USF.COMPS:FHP:1,2012-02-06T00:00:00Z,28.1530,-82.8010,21.0,1111122 
COMPS,ioos:station:USF.COMPS:FHP:1,2012-02-06T01:00:00Z,28.1530,-82.8010,20.9,1111122 
COMPS,ioos:station:USF.COMPS:FHP:1,2012-02-06T02:00:00Z,28.1530,-82.8010,20.7,1111122 
COMPS,ioos:station:USF.COMPS:FHP:1,2012-02-06T03:00:00Z,28.1530,-82.8010,20.5,1111122 
COMPS,ioos:station:USF.COMPS:FHP:1,2012-02-06T04:00:00Z,28.1530,-82.8010,20.1,1111122 
COMPS,ioos:station:USF.COMPS:FHP:1,2012-02-06T05:00:00Z,28.1530,-82.8010,20.0,1111122 
COMPS,ioos:station:USF.COMPS:FHP:1,2012-02-06T06:00:00Z,28.1530,-82.8010,19.8,1111122 
COMPS,ioos:station:USF.COMPS:FHP:1,2012-02-06T07:00:00Z,28.1530,-82.8010,20.4,1111122 
COMPS,ioos:station:USF.COMPS:FHP:1,2012-02-06T08:00:00Z,28.1530,-82.8010,20.3,1111122 
COMPS,ioos:station:USF.COMPS:FHP:1,2012-02-06T09:00:00Z,28.1530,-82.8010,20.4,1111122 
COMPS,ioos:station:USF.COMPS:FHP:1,2012-02-06T10:00:00Z,28.1530,-82.8010,20.0,1111122 
COMPS,ioos:station:USF.COMPS:FHP:1,2012-02-06T11:00:00Z,28.1530,-82.8010,20.1,1111122 
COMPS,ioos:station:USF.COMPS:FHP:1,2012-02-06T12:00:00Z,28.1530,-82.8010,20.0,1111122 
COMPS,ioos:station:USF.COMPS:FHP:1,2012-02-06T13:00:00Z,28.1530,-82.8010,19.5,1111122 
COMPS,ioos:station:USF.COMPS:FHP:1,2012-02-06T14:00:00Z,28.1530,-82.8010,19.8,1111122 
COMPS,ioos:station:USF.COMPS:FHP:1,2012-02-06T15:00:00Z,28.1530,-82.8010,21.0,1111122 
COMPS,ioos:station:USF.COMPS:FHP:1,2012-02-06T16:00:00Z,28.1530,-82.8010,23.3,1111122 
COMPS,ioos:station:USF.COMPS:FHP:1,2012-02-06T17:00:00Z,28.1530,-82.8010,24.2,1111122 
COMPS,ioos:station:USF.COMPS:FHP:1,2012-02-06T18:00:00Z,28.1530,-82.8010,22.9,1111122 
COMPS,ioos:station:USF.COMPS:FHP:1,2012-02-06T19:00:00Z,28.1530,-82.8010,22.5,1111122 
COMPS,ioos:station:USF.COMPS:FHP:1,2012-02-06T20:00:00Z,28.1530,-82.8010,23.0,1111122 
COMPS,ioos:station:USF.COMPS:FHP:1,2012-02-06T21:00:00Z,28.1530,-82.8010,21.8,1111122 
COMPS,ioos:station:USF.COMPS:FHP:1,2012-02-06T22:00:00Z,28.1530,-82.8010,22.3,1111122 
COMPS,ioos:station:USF.COMPS:FHP:1,2012-02-06T23:00:00Z,28.1530,-82.8010,21.7,1111122 
COMPS,ioos:station:USF.COMPS:FHP:1,2012-02-07T00:00:00Z,28.1530,-82.8010,22.3,1111122 
COMPS,ioos:station:USF.COMPS:FHP:1,2012-02-07T01:00:00Z,28.1530,-82.8010,21.0,1111122 
COMPS,ioos:station:USF.COMPS:FHP:1,2012-02-07T02:00:00Z,28.1530,-82.8010,21.4,1111122 
COMPS,ioos:station:USF.COMPS:FHP:1,2012-02-07T03:00:00Z,28.1530,-82.8010,21.4,1111122 
COMPS,ioos:station:USF.COMPS:FHP:1,2012-02-07T04:00:00Z,28.1530,-82.8010,20.7,1111122 
COMPS,ioos:station:USF.COMPS:FHP:1,2012-02-07T05:00:00Z,28.1530,-82.8010,20.6,1111122 
COMPS,ioos:station:USF.COMPS:FHP:1,2012-02-07T17:00:00Z,28.1530,-82.8010,18.5,1111122 
COMPS,ioos:station:USF.COMPS:FHP:1,2012-02-07T18:00:00Z,28.1530,-82.8010,19.2,1111122 
COMPS,ioos:station:USF.COMPS:FHP:1,2012-02-07T19:00:00Z,28.1530,-82.8010,19.8,1111122 
COMPS,ioos:station:USF.COMPS:FHP:1,2012-02-07T20:00:00Z,28.1530,-82.8010,19.9,1111122 
COMPS,ioos:station:USF.COMPS:FHP:1,2012-02-07T21:00:00Z,28.1530,-82.8010,20.4,1111122 
COMPS,ioos:station:USF.COMPS:FHP:1,2012-02-07T22:00:00Z,28.1530,-82.8010,20.1,1111122 
COMPS,ioos:station:USF.COMPS:FHP:1,2012-02-07T23:00:00Z,28.1530,-82.8010,20.3,1111122 
COMPS,ioos:station:USF.COMPS:FHP:1,2012-02-08T00:00:00Z,28.1530,-82.8010,19.9,1111122 
COMPS,ioos:station:USF.COMPS:FHP:1,2012-02-08T01:00:00Z,28.1530,-82.8010,19.3,1111122 
COMPS,ioos:station:USF.COMPS:FHP:1,2012-02-08T02:00:00Z,28.1530,-82.8010,18.9,1111122 
COMPS,ioos:station:USF.COMPS:FHP:1,2012-02-08T03:00:00Z,28.1530,-82.8010,18.8,1111122 
COMPS,ioos:station:USF.COMPS:FHP:1,2012-02-08T04:00:00Z,28.1530,-82.8010,18.4,1111122 
COMPS,ioos:station:USF.COMPS:FHP:1,2012-02-08T05:00:00Z,28.1530,-82.8010,18.0,1111122 
COMPS,ioos:station:USF.COMPS:FHP:1,2012-02-08T06:00:00Z,28.1530,-82.8010,17.6,1111122 
COMPS,ioos:station:USF.COMPS:FHP:1,2012-02-08T07:00:00Z,28.1530,-82.8010,17.3,1111122 
COMPS,ioos:station:USF.COMPS:FHP:1,2012-02-08T08:00:00Z,28.1530,-82.8010,16.8,1111122 
COMPS,ioos:station:USF.COMPS:FHP:1,2012-02-08T09:00:00Z,28.1530,-82.8010,16.6,1111122 
COMPS,ioos:station:USF.COMPS:FHP:1,2012-02-08T11:00:00Z,28.1530,-82.8010,15.3,1111122 
COMPS,ioos:station:USF.COMPS:FHP:1,2012-02-08T12:00:00Z,28.1530,-82.8010,14.8,1111122 
COMPS,ioos:station:USF.COMPS:FHP:1,2012-02-08T13:00:00Z,28.1530,-82.8010,15.3,1111122 
COMPS,ioos:station:USF.COMPS:FHP:1,2012-02-08T14:00:00Z,28.1530,-82.8010,16.2,1111122 
COMPS,ioos:station:USF.COMPS:FHP:1,2012-02-08T15:00:00Z,28.1530,-82.8010,16.9,1111122 
COMPS,ioos:station:USF.COMPS:FHP:1,2012-02-08T16:00:00Z,28.1530,-82.8010,17.5,1111122 
COMPS,ioos:station:USF.COMPS:FHP:1,2012-02-08T17:00:00Z,28.1530,-82.8010,18.2,1111122 
COMPS,ioos:station:USF.COMPS:FHP:1,2012-02-08T18:00:00Z,28.1530,-82.8010,18.8,1111122 
COMPS,ioos:station:USF.COMPS:FHP:1,2012-02-08T19:00:00Z,28.1530,-82.8010,18.5,1111122 
COMPS,ioos:station:USF.COMPS:FHP:1,2012-02-08T20:00:00Z,28.1530,-82.8010,19.0,1111122 
COMPS,ioos:station:USF.COMPS:FHP:1,2012-02-08T21:00:00Z,28.1530,-82.8010,19.0,1111122 
COMPS,ioos:station:USF.COMPS:FHP:1,2012-02-08T22:00:00Z,28.1530,-82.8010,19.0,1111122 
COMPS,ioos:station:USF.COMPS:FHP:1,2012-02-08T23:00:00Z,28.1530,-82.8010,18.5,1111122 
COMPS,ioos:station:USF.COMPS:FHP:1,2012-02-09T00:00:00Z,28.1530,-82.8010,19.0,1111122 
COMPS,ioos:station:USF.COMPS:FHP:1,2012-02-09T01:00:00Z,28.1530,-82.8010,18.7,1111122 
COMPS,ioos:station:USF.COMPS:FHP:1,2012-02-09T02:00:00Z,28.1530,-82.8010,19.2,1111122 
COMPS,ioos:station:USF.COMPS:FHP:1,2012-02-09T03:00:00Z,28.1530,-82.8010,19.6,1111122 
COMPS,ioos:station:USF.COMPS:FHP:1,2012-02-09T04:00:00Z,28.1530,-82.8010,19.4,1111122 
COMPS,ioos:station:USF.COMPS:FHP:1,2012-02-09T05:00:00Z,28.1530,-82.8010,19.5,1111122 
COMPS,ioos:station:USF.COMPS:FHP:1,2012-02-09T06:00:00Z,28.1530,-82.8010,19.5,1111122 
COMPS,ioos:station:USF.COMPS:FHP:1,2012-02-09T07:00:00Z,28.1530,-82.8010,17.6,1111122 
COMPS,ioos:station:USF.COMPS:FHP:1,2012-02-09T08:00:00Z,28.1530,-82.8010,16.1,1111122 
COMPS,ioos:station:USF.COMPS:FHP:1,2012-02-09T09:00:00Z,28.1530,-82.8010,16.2,1111122 
COMPS,ioos:station:USF.COMPS:FHP:1,2012-02-09T10:00:00Z,28.1530,-82.8010,15.7,1111122 
COMPS,ioos:station:USF.COMPS:FHP:1,2012-02-09T11:00:00Z,28.1530,-82.8010,15.5,1111122 
COMPS,ioos:station:USF.COMPS:FHP:1,2012-02-09T12:00:00Z,28.1530,-82.8010,15.1,1111122 
COMPS,ioos:station:USF.COMPS:FHP:1,2012-02-09T13:00:00Z,28.1530,-82.8010,14.4,1111122 
COMPS,ioos:station:USF.COMPS:FHP:1,2012-02-09T14:00:00Z,28.1530,-82.8010,14.4,1111122 
COMPS,ioos:station:USF.COMPS:FHP:1,2012-02-09T15:00:00Z,28.1530,-82.8010,15.3,1111122 
COMPS,ioos:station:USF.COMPS:FHP:1,2012-02-09T16:00:00Z,28.1530,-82.8010,16.3,1111122 
COMPS,ioos:station:USF.COMPS:FHP:1,2012-02-09T17:00:00Z,28.1530,-82.8010,17.5,1111122 
COMPS,ioos:station:USF.COMPS:FHP:1,2012-02-09T18:00:00Z,28.1530,-82.8010,18.5,1111122 
COMPS,ioos:station:USF.COMPS:FHP:1,2012-02-09T19:00:00Z,28.1530,-82.8010,19.4,1111122 
COMPS,ioos:station:USF.COMPS:FHP:1,2012-02-09T20:00:00Z,28.1530,-82.8010,18.5,1111122 
COMPS,ioos:station:USF.COMPS:FHP:1,2012-02-09T21:00:00Z,28.1530,-82.8010,18.6,1111122 
COMPS,ioos:station:USF.COMPS:FHP:1,2012-02-09T22:00:00Z,28.1530,-82.8010,19.0,1111122 
COMPS,ioos:station:USF.COMPS:FHP:1,2012-02-09T23:00:00Z,28.1530,-82.8010,19.4,1111122 
COMPS,ioos:station:USF.COMPS:FHP:1,2012-02-10T00:00:00Z,28.1530,-82.8010,18.7,1111122 
COMPS,ioos:station:USF.COMPS:FHP:1,2012-02-10T01:00:00Z,28.1530,-82.8010,18.2,1111122 
COMPS,ioos:station:USF.COMPS:FHP:1,2012-02-10T02:00:00Z,28.1530,-82.8010,17.6,1111122 
COMPS,ioos:station:USF.COMPS:FHP:1,2012-02-10T03:00:00Z,28.1530,-82.8010,17.2,1111122 
COMPS,ioos:station:USF.COMPS:FHP:1,2012-02-10T04:00:00Z,28.1530,-82.8010,17.5,1111122 
COMPS,ioos:station:USF.COMPS:FHP:1,2012-02-10T05:00:00Z,28.1530,-82.8010,17.2,1111122 
COMPS,ioos:station:USF.COMPS:FHP:1,2012-02-10T06:00:00Z,28.1530,-82.8010,16.6,1111122 
COMPS,ioos:station:USF.COMPS:FHP:1,2012-02-10T07:00:00Z,28.1530,-82.8010,16.3,1111122 
COMPS,ioos:station:USF.COMPS:FHP:1,2012-02-10T08:00:00Z,28.1530,-82.8010,15.7,1111122 
COMPS,ioos:station:USF.COMPS:FHP:1,2012-02-10T09:00:00Z,28.1530,-82.8010,15.3,1111122 
COMPS,ioos:station:USF.COMPS:FHP:1,2012-02-10T10:00:00Z,28.1530,-82.8010,15.0,1111122 
COMPS,ioos:station:USF.COMPS:FHP:1,2012-02-10T11:00:00Z,28.1530,-82.8010,14.5,1111122 
COMPS,ioos:station:USF.COMPS:FHP:1,2012-02-10T12:00:00Z,28.1530,-82.8010,14.6,1111122 
COMPS,ioos:station:USF.COMPS:FHP:1,2012-02-10T13:00:00Z,28.1530,-82.8010,14.8,1111122 
COMPS,ioos:station:USF.COMPS:FHP:1,2012-02-10T14:00:00Z,28.1530,-82.8010,15.4,1111122 
COMPS,ioos:station:USF.COMPS:FHP:1,2012-02-10T15:00:00Z,28.1530,-82.8010,18.0,1111122 
COMPS,ioos:station:USF.COMPS:FHP:1,2012-02-10T16:00:00Z,28.1530,-82.8010,19.4,1111122 
COMPS,ioos:station:USF.COMPS:FHP:1,2012-02-10T17:00:00Z,28.1530,-82.8010,19.7,1111122 
COMPS,ioos:station:USF.COMPS:FHP:1,2012-02-10T18:00:00Z,28.1530,-82.8010,21.6,1111122 
COMPS,ioos:station:USF.COMPS:FHP:1,2012-02-10T19:00:00Z,28.1530,-82.8010,21.1,1111122 
COMPS,ioos:station:USF.COMPS:FHP:1,2012-02-10T20:00:00Z,28.1530,-82.8010,20.5,1111122 
COMPS,ioos:station:USF.COMPS:FHP:1,2012-02-10T21:00:00Z,28.1530,-82.8010,20.1,1111122 
COMPS,ioos:station:USF.COMPS:FHP:1,2012-02-10T22:00:00Z,28.1530,-82.8010,19.3,1111122 
COMPS,ioos:station:USF.COMPS:FHP:1,2012-02-10T23:00:00Z,28.1530,-82.8010,18.9,1111122 
COMPS,ioos:station:USF.COMPS:FHP:1,2012-02-11T00:00:00Z,28.1530,-82.8010,18.9,1111122 
COMPS,ioos:station:USF.COMPS:FHP:1,2012-02-11T01:00:00Z,28.1530,-82.8010,18.9,1111122 
COMPS,ioos:station:USF.COMPS:FHP:1,2012-02-11T02:00:00Z,28.1530,-82.8010,18.6,1111122 
COMPS,ioos:station:USF.COMPS:FHP:1,2012-02-11T03:00:00Z,28.1530,-82.8010,18.2,1111122 
COMPS,ioos:station:USF.COMPS:FHP:1,2012-02-11T04:00:00Z,28.1530,-82.8010,18.1,1111122 
COMPS,ioos:station:USF.COMPS:FHP:1,2012-02-11T05:00:00Z,28.1530,-82.8010,17.9,1111122 
COMPS,ioos:station:USF.COMPS:FHP:1,2012-02-11T06:00:00Z,28.1530,-82.8010,17.3,1111122 
COMPS,ioos:station:USF.COMPS:FHP:1,2012-02-11T07:00:00Z,28.1530,-82.8010,17.2,1111122 
COMPS,ioos:station:USF.COMPS:FHP:1,2012-02-11T08:00:00Z,28.1530,-82.8010,16.6,1111122 
COMPS,ioos:station:USF.COMPS:FHP:1,2012-02-11T09:00:00Z,28.1530,-82.8010,16.2,1111122 
COMPS,ioos:station:USF.COMPS:FHP:1,2012-02-11T10:00:00Z,28.1530,-82.8010,16.2,1111122 
COMPS,ioos:station:USF.COMPS:FHP:1,2012-02-11T11:00:00Z,28.1530,-82.8010,16.1,1111122 
COMPS,ioos:station:USF.COMPS:FHP:1,2012-02-11T12:00:00Z,28.1530,-82.8010,16.5,1111122 
COMPS,ioos:station:USF.COMPS:FHP:1,2012-02-11T13:00:00Z,28.1530,-82.8010,16.4,1111122 
COMPS,ioos:station:USF.COMPS:FHP:1,2012-02-11T14:00:00Z,28.1530,-82.8010,16.4,1111122 
COMPS,ioos:station:USF.COMPS:FHP:1,2012-02-11T15:00:00Z,28.1530,-82.8010,16.0,1111122 
COMPS,ioos:station:USF.COMPS:FHP:1,2012-02-11T16:00:00Z,28.1530,-82.8010,15.9,1111122 
COMPS,ioos:station:USF.COMPS:FHP:1,2012-02-11T17:00:00Z,28.1530,-82.8010,15.8,1111122 
COMPS,ioos:station:USF.COMPS:FHP:1,2012-02-11T18:00:00Z,28.1530,-82.8010,15.3,1111122 
COMPS,ioos:station:USF.COMPS:FHP:1,2012-02-11T19:00:00Z,28.1530,-82.8010,15.2,1111122 
COMPS,ioos:station:USF.COMPS:FHP:1,2012-02-11T20:00:00Z,28.1530,-82.8010,15.4,1111122 
COMPS,ioos:station:USF.COMPS:FHP:1,2012-02-11T21:00:00Z,28.1530,-82.8010,15.1,1111122 
COMPS,ioos:station:USF.COMPS:FHP:1,2012-02-11T22:00:00Z,28.1530,-82.8010,14.7,1111122 
COMPS,ioos:station:USF.COMPS:FHP:1,2012-02-11T23:00:00Z,28.1530,-82.8010,14.3,1111122 
COMPS,ioos:station:USF.COMPS:FHP:1,2012-02-12T00:00:00Z,28.1530,-82.8010,14.4,1111122 
COMPS,ioos:station:USF.COMPS:FHP:1,2012-02-12T01:00:00Z,28.1530,-82.8010,14.6,1111122 
COMPS,ioos:station:USF.COMPS:FHP:1,2012-02-12T02:00:00Z,28.1530,-82.8010,14.4,1111122 
COMPS,ioos:station:USF.COMPS:FHP:1,2012-02-12T03:00:00Z,28.1530,-82.8010,14.2,1111122 
COMPS,ioos:station:USF.COMPS:FHP:1,2012-02-12T04:00:00Z,28.1530,-82.8010,12.7,1111122 
COMPS,ioos:station:USF.COMPS:FHP:1,2012-02-12T05:00:00Z,28.1530,-82.8010,11.7,1111122 
COMPS,ioos:station:USF.COMPS:FHP:1,2012-02-12T06:00:00Z,28.1530,-82.8010,10.5,1111122 
COMPS,ioos:station:USF.COMPS:FHP:1,2012-02-12T07:00:00Z,28.1530,-82.8010,9.3,1111122 
COMPS,ioos:station:USF.COMPS:FHP:1,2012-02-12T08:00:00Z,28.1530,-82.8010,8.2,1111122 
COMPS,ioos:station:USF.COMPS:FHP:1,2012-02-12T09:00:00Z,28.1530,-82.8010,6.7,1111122 
COMPS,ioos:station:USF.COMPS:FHP:1,2012-02-12T10:00:00Z,28.1530,-82.8010,5.3,1111122 
COMPS,ioos:station:USF.COMPS:FHP:1,2012-02-12T11:00:00Z,28.1530,-82.8010,3.4,1111122 
COMPS,ioos:station:USF.COMPS:FHP:1,2012-02-12T12:00:00Z,28.1530,-82.8010,2.3,1111122 
COMPS,ioos:station:USF.COMPS:FHP:1,2012-02-12T13:00:00Z,28.1530,-82.8010,1.5,1111122 
COMPS,ioos:station:USF.COMPS:FHP:1,2012-02-12T14:00:00Z,28.1530,-82.8010,1.6,1111122 
COMPS,ioos:station:USF.COMPS:FHP:1,2012-02-12T15:00:00Z,28.1530,-82.8010,1.9,1111122 
COMPS,ioos:station:USF.COMPS:FHP:1,2012-02-12T16:00:00Z,28.1530,-82.8010,2.8,1111122 
COMPS,ioos:station:USF.COMPS:FHP:1,2012-02-12T17:00:00Z,28.1530,-82.8010,4.1,1111122 
COMPS,ioos:station:USF.COMPS:FHP:1,2012-02-12T18:00:00Z,28.1530,-82.8010,5.1,1111122 
COMPS,ioos:station:USF.COMPS:FHP:1,2012-02-12T19:00:00Z,28.1530,-82.8010,6.3,1111122 
COMPS,ioos:station:USF.COMPS:FHP:1,2012-02-12T20:00:00Z,28.1530,-82.8010,7.2,1111122 
COMPS,ioos:station:USF.COMPS:FHP:1,2012-02-12T21:00:00Z,28.1530,-82.8010,7.6,1111122 
COMPS,ioos:station:USF.COMPS:FHP:1,2012-02-12T22:00:00Z,28.1530,-82.8010,8.4,1111122 
COMPS,ioos:station:USF.COMPS:FHP:1,2012-02-12T23:00:00Z,28.1530,-82.8010,8.8,1111122 
COMPS,ioos:station:USF.COMPS:FHP:1,2012-02-13T00:00:00Z,28.1530,-82.8010,8.9,1111122 
COMPS,ioos:station:USF.COMPS:FHP:1,2012-02-13T01:00:00Z,28.1530,-82.8010,8.5,1111122 
COMPS,ioos:station:USF.COMPS:FHP:1,2012-02-13T02:00:00Z,28.1530,-82.8010,7.6,1111122 
COMPS,ioos:station:USF.COMPS:FHP:1,2012-02-13T04:00:00Z,28.1530,-82.8010,6.0,1111122 
COMPS,ioos:station:USF.COMPS:FHP:1,2012-02-13T05:00:00Z,28.1530,-82.8010,6.2,1111122 
COMPS,ioos:station:USF.COMPS:FHP:1,2012-02-13T06:00:00Z,28.1530,-82.8010,5.2,1111122 
COMPS,ioos:station:USF.COMPS:FHP:1,2012-02-13T07:00:00Z,28.1530,-82.8010,4.7,1111122 
COMPS,ioos:station:USF.COMPS:FHP:1,2012-02-13T08:00:00Z,28.1530,-82.8010,4.1,1111122 
COMPS,ioos:station:USF.COMPS:FHP:1,2012-02-13T09:00:00Z,28.1530,-82.8010,3.7,1111122 
COMPS,ioos:station:USF.COMPS:FHP:1,2012-02-13T10:00:00Z,28.1530,-82.8010,3.3,1111122 
COMPS,ioos:station:USF.COMPS:FHP:1,2012-02-13T11:00:00Z,28.1530,-82.8010,3.4,1111122 
COMPS,ioos:station:USF.COMPS:FHP:1,2012-02-13T12:00:00Z,28.1530,-82.8010,3.2,1111122 
COMPS,ioos:station:USF.COMPS:FHP:1,2012-02-13T13:00:00Z,28.1530,-82.8010,3.6,1111122 
COMPS,ioos:station:USF.COMPS:FHP:1,2012-02-13T14:00:00Z,28.1530,-82.8010,5.9,1111122 
COMPS,ioos:station:USF.COMPS:FHP:1,2012-02-13T15:00:00Z,28.1530,-82.8010,8.3,1111122 
COMPS,ioos:station:USF.COMPS:FHP:1,2012-02-13T16:00:00Z,28.1530,-82.8010,10.2,1111122 
COMPS,ioos:station:USF.COMPS:FHP:1,2012-02-13T17:00:00Z,28.1530,-82.8010,12.8,1111122 
COMPS,ioos:station:USF.COMPS:FHP:1,2012-02-13T18:00:00Z,28.1530,-82.8010,12.0,1111122 
COMPS,ioos:station:USF.COMPS:FHP:1,2012-02-13T19:00:00Z,28.1530,-82.8010,11.8,1111122 
COMPS,ioos:station:USF.COMPS:FHP:1,2012-02-13T20:00:00Z,28.1530,-82.8010,12.3,1111122 
COMPS,ioos:station:USF.COMPS:FHP:1,2012-02-14T16:00:00Z,28.1530,-82.8010,15.8,1111122 
COMPS,ioos:station:USF.COMPS:FHP:1,2012-02-14T17:00:00Z,28.1530,-82.8010,17.0,1111122 
COMPS,ioos:station:USF.COMPS:FHP:1,2012-02-14T18:00:00Z,28.1530,-82.8010,18.2,1111122 
COMPS,ioos:station:USF.COMPS:FHP:1,2012-02-14T19:00:00Z,28.1530,-82.8010,18.5,1111122 
COMPS,ioos:station:USF.COMPS:FHP:1,2012-02-14T20:00:00Z,28.1530,-82.8010,18.9,1111122 
COMPS,ioos:station:USF.COMPS:FHP:1,2012-02-14T21:00:00Z,28.1530,-82.8010,19.2,1111122 
COMPS,ioos:station:USF.COMPS:FHP:1,2012-02-14T22:00:00Z,28.1530,-82.8010,19.1,1111122 
COMPS,ioos:station:USF.COMPS:FHP:1,2012-02-14T23:00:00Z,28.1530,-82.8010,18.8,1111122 
COMPS,ioos:station:USF.COMPS:FHP:1,2012-02-15T00:00:00Z,28.1530,-82.8010,18.6,1111122 
COMPS,ioos:station:USF.COMPS:FHP:1,2012-02-15T01:00:00Z,28.1530,-82.8010,18.3,1111122 
COMPS,ioos:station:USF.COMPS:FHP:1,2012-02-15T02:00:00Z,28.1530,-82.8010,18.1,1111122 
COMPS,ioos:station:USF.COMPS:FHP:1,2012-02-15T03:00:00Z,28.1530,-82.8010,18.5,1111122 
COMPS,ioos:station:USF.COMPS:FHP:1,2012-02-15T04:00:00Z,28.1530,-82.8010,17.8,1111122 
COMPS,ioos:station:USF.COMPS:FHP:1,2012-02-15T05:00:00Z,28.1530,-82.8010,18.0,1111122 
COMPS,ioos:station:USF.COMPS:FHP:1,2012-02-15T06:00:00Z,28.1530,-82.8010,18.2,1111122 
COMPS,ioos:station:USF.COMPS:FHP:1,2012-02-15T07:00:00Z,28.1530,-82.8010,18.0,1111122 
COMPS,ioos:station:USF.COMPS:FHP:1,2012-02-15T08:00:00Z,28.1530,-82.8010,17.9,1111122 
COMPS,ioos:station:USF.COMPS:FHP:1,2012-02-15T16:00:00Z,28.1530,-82.8010,19.3,1111122 
COMPS,ioos:station:USF.COMPS:FHP:1,2012-02-15T17:00:00Z,28.1530,-82.8010,19.1,1111122 
COMPS,ioos:station:USF.COMPS:FHP:1,2012-02-15T18:00:00Z,28.1530,-82.8010,19.6,1111122 
COMPS,ioos:station:USF.COMPS:FHP:1,2012-02-15T19:00:00Z,28.1530,-82.8010,19.8,1111122 
COMPS,ioos:station:USF.COMPS:FHP:1,2012-02-15T20:00:00Z,28.1530,-82.8010,19.9,1111122 
COMPS,ioos:station:USF.COMPS:FHP:1,2012-02-15T21:00:00Z,28.1530,-82.8010,19.7,1111122 
COMPS,ioos:station:USF.COMPS:FHP:1,2012-02-15T22:00:00Z,28.1530,-82.8010,19.3,1111122 
COMPS,ioos:station:USF.COMPS:FHP:1,2012-02-15T23:00:00Z,28.1530,-82.8010,19.0,1111122 
COMPS,ioos:station:USF.COMPS:FHP:1,2012-02-16T00:00:00Z,28.1530,-82.8010,18.4,1111122 